Wind_Speed
6 6 5 6 2 1 1 2 4 2 4 6 8 8 9 11 13 17 20 22 22 22 21 23 27 27 30 34 38 40 47 54 58 61 67 64 62 40 32 36 36 34 36 38 37 38 39 41 43
10 11 9 8 10 6 6 7 8 8 8 5 6 8 8 11 14 16 17 19 18 19 19 19 21 28 36 33 39 45 45 50 56 63 66 69 71 48 36 36 37 37 38 39 41 43 47 47 46
10 7 14 14 11 11 9 9 10 9 9 10 11 11 12 13 13 17 17 17 18 17 18 22 28 30 33 39 40 43 44 50 57 63 67 75 68 59 43 41 43 43 43 48 47 50 51 52 50
11 13 11 9 15 12 12 11 11 11 11 13 13 14 13 14 20 20 19 17 16 15 22 24 29 29 28 38 42 42 46 50 57 61 68 71 72 72 50 47 45 49 49 52 53 57 56 52 50
16 12 9 9 9 11 12 13 13 15 16 16 15 15 16 16 16 17 20 21 16 13 21 27 31 33 29 38 41 42 48 50 56 62 69 71 72 71 58 52 50 50 52 54 58 62 59 56 60
18 17 13 13 10 10 12 12 14 14 15 16 16 17 19 20 20 17 22 18 13 16 24 29 30 32 36 42 44 47 49 55 59 64 71 71 74 70 72 54 52 53 54 58 64 64 62 62 69
23 21 19 12 15 15 16 17 16 16 17 19 20 20 21 21 23 24 22 17 12 16 24 31 35 35 39 43 48 52 52 57 58 67 72 73 77 73 73 62 56 56 58 61 67 66 65 68 68
26 27 23 20 18 19 21 18 20 20 19 21 22 22 23 23 22 20 19 13 18 22 25 32 37 39 42 48 53 54 57 58 63 69 72 76 78 78 72 64 60 60 63 66 69 71 70 71 69
31 31 27 23 24 21 21 20 20 20 20 23 21 20 23 23 19 17 18 15 20 23 27 33 35 42 45 54 58 56 54 55 61 68 70 78 79 81 74 69 62 60 64 69 73 78 75 74 68
35 34 29 25 25 24 24 23 23 23 25 25 24 24 25 24 21 20 19 20 24 28 31 34 38 44 48 57 60 64 57 57 59 69 70 79 80 85 77 71 65 62 67 73 76 80 78 74 68
37 34 32 29 29 28 28 27 26 27 27 25 25 26 25 23 22 25 25 26 29 33 35 36 40 46 51 58 62 62 54 61 63 68 72 75 80 83 76 72 65 64 69 75 77 84 79 75 68
41 38 35 32 32 32 31 31 31 28 27 26 26 26 27 26 25 26 26 30 32 35 36 39 45 50 53 54 59 60 58 60 65 68 74 73 80 82 73 74 66 65 70 77 80 86 80 75 67
43 42 40 38 35 34 35 33 33 31 29 29 28 28 30 30 29 30 31 33 35 36 38 42 44 43 48 56 57 57 60 64 66 70 74 76 79 82 75 74 67 67 72 79 83 85 80 75 64
48 47 44 44 40 38 37 36 36 34 35 34 33 30 32 32 30 32 34 36 37 39 41 41 42 47 52 56 55 60 61 65 65 71 72 78 79 79 79 72 68 68 73 78 86 84 79 73 58
54 49 50 46 46 44 40 41 40 40 39 38 37 35 34 34 34 36 36 40 41 41 41 43 47 52 56 59 57 61 62 63 66 70 74 76 78 76 77 73 68 70 74 79 87 82 78 68 54
57 54 52 54 47 47 42 44 39 39 38 38 36 37 35 35 36 36 36 34 37 39 43 47 51 55 58 58 61 62 64 64 69 70 73 76 77 77 78 72 69 68 75 80 87 83 76 64 54
62 59 59 59 53 49 47 47 42 40 38 37 39 37 35 40 38 38 39 40 41 43 47 50 54 56 57 59 61 63 65 63 68 73 74 75 77 75 77 70 67 67 74 80 87 84 74 60 51
71 66 65 63 60 53 52 53 47 45 44 43 42 41 42 41 42 39 41 43 47 49 51 52 53 56 58 60 64 65 63 63 69 73 73 74 76 70 68 68 64 66 72 78 85 83 72 59 48
75 73 68 67 65 61 59 57 52 46 46 48 47 44 44 41 43 43 45 47 48 50 52 53 55 56 60 60 62 63 61 64 69 72 71 74 74 68 65 62 63 66 71 77 84 83 72 59 47
78 75 74 72 70 66 64 62 59 50 46 47 48 47 49 49 45 46 48 49 51 53 55 56 57 58 59 59 61 62 63 65 71 70 72 75 71 68 60 61 61 65 69 78 85 85 75 61 48
83 79 78 78 75 72 68 65 64 58 52 50 50 49 48 48 49 51 50 51 53 55 57 55 57 56 56 60 60 63 63 66 70 69 72 73 70 64 61 59 60 64 66 72 83 86 77 65 49
86 86 84 81 80 75 73 66 68 64 58 58 58 56 54 55 53 54 55 56 57 57 57 56 57 58 57 60 62 66 63 66 70 71 72 70 66 61 56 55 55 62 65 69 79 84 78 69 51
87 90 88 86 84 79 74 72 69 71 67 64 62 61 59 57 56 59 61 60 57 57 55 57 56 58 58 61 63 63 66 66 69 71 72 65 64 59 55 53 50 58 62 66 75 79 80 71 56
91 91 89 88 85 82 78 77 68 75 73 68 66 64 63 61 62 63 64 61 59 59 58 59 59 58 60 63 64 62 68 69 67 71 69 63 59 53 48 50 50 52 56 64 70 74 80 75 60
97 96 94 92 87 78 80 82 68 77 77 73 69 66 64 64 66 66 68 67 63 61 59 61 59 60 63 63 64 61 67 68 68 67 68 62 56 49 46 45 46 48 53 59 65 68 74 75 64
108 104 98 97 91 84 85 80 73 76 77 75 71 68 68 70 71 69 70 67 64 61 62 61 61 63 63 64 63 64 65 68 67 66 65 59 53 47 47 45 44 46 52 56 59 60 67 69 66
111 106 105 105 101 93 90 82 80 78 79 79 78 76 75 75 74 74 68 68 68 64 64 63 65 65 64 63 63 65 67 67 67 66 62 54 48 43 43 44 43 47 52 52 55 55 57 63 61
114 111 110 107 100 93 87 81 78 80 85 84 83 82 79 76 74 71 70 68 68 68 67 68 69 66 65 64 63 66 65 67 67 64 59 52 46 41 42 45 46 54 55 49 52 53 52 52 57
116 115 114 110 106 98 93 89 86 85 84 83 83 83 79 77 75 75 72 72 72 72 71 71 70 67 66 65 66 65 67 71 65 63 59 50 45 42 44 46 50 55 50 49 50 48 46 46 49
114 114 114 113 107 105 102 93 91 87 87 86 87 86 84 80 78 77 75 73 73 73 72 71 70 69 66 66 67 67 69 70 65 61 58 48 45 47 47 50 54 51 49 46 48 44 44 41 41
Wind_Direction
206 203 201 203 151 206 281 292 271 286 251 265 299 318 309 310 313 330 339 339 351 4 7 15 18 7 7 358 6 4 1 4 2 4 5 3 359 333 321 324 324 320 321 326 316 311 307 302 299
230 227 225 222 230 250 267 279 297 316 317 324 313 327 356 0 349 334 331 333 340 354 0 5 357 7 4 4 4 3 355 357 358 0 2 1 1 347 332 330 329 327 329 330 325 322 316 310 302
231 251 232 236 244 255 264 269 276 278 292 299 309 315 328 335 341 337 334 333 332 347 3 352 350 349 351 359 1 357 352 352 354 356 359 1 2 357 339 335 332 335 337 335 330 325 318 310 303
249 251 253 257 245 283 266 274 271 276 291 298 303 310 318 324 327 327 331 332 329 345 360 350 349 349 349 351 356 352 348 349 351 352 355 360 2 2 347 339 335 338 336 333 331 327 317 308 299
251 251 254 261 250 270 285 286 282 291 300 306 304 302 307 318 330 330 333 341 332 351 350 345 350 348 346 349 352 350 349 349 349 351 354 358 0 359 351 341 339 338 336 332 330 326 321 315 309
244 249 255 251 245 263 290 296 295 295 300 306 303 301 304 312 307 312 324 334 330 338 347 351 344 347 345 348 349 347 345 347 346 350 352 357 360 357 358 342 340 338 334 334 330 328 322 314 311
244 252 263 256 252 258 281 289 300 309 314 319 314 305 308 304 307 310 314 321 317 331 345 348 347 346 347 350 348 345 343 344 344 346 349 356 357 357 357 347 340 337 332 333 332 327 319 314 309
247 257 266 262 255 261 280 290 297 302 312 313 311 313 316 321 317 318 319 323 313 317 335 340 341 347 346 346 346 344 341 339 344 345 349 354 358 356 353 349 340 336 334 335 331 328 323 321 318
248 256 262 262 266 269 279 285 290 295 304 306 311 312 314 315 317 321 311 304 314 314 321 322 331 337 339 343 343 341 336 340 340 343 349 351 354 353 352 348 340 336 334 334 333 333 329 326 320
245 252 260 264 268 271 274 284 288 295 298 300 308 310 313 320 315 312 310 305 315 316 315 320 324 332 339 340 339 337 334 340 341 344 351 350 351 353 352 347 340 335 334 335 336 335 331 328 320
248 251 255 258 267 270 275 280 284 289 290 292 297 300 307 312 310 315 319 315 322 325 315 318 322 326 332 336 338 336 335 341 342 343 348 350 350 351 350 345 338 336 335 335 337 338 334 327 322
252 252 254 258 263 268 272 276 280 281 284 289 292 294 302 302 304 313 316 321 320 322 324 320 320 322 326 334 337 337 337 340 340 343 348 350 351 350 348 345 339 337 335 335 339 339 335 330 327
253 255 256 257 261 265 271 274 276 278 280 283 290 291 296 298 304 304 310 315 318 321 319 322 327 334 334 335 337 339 339 341 340 342 345 350 350 350 347 345 339 339 338 337 343 341 336 333 328
251 252 257 257 257 260 266 270 272 274 277 282 287 287 288 291 297 304 307 312 314 318 323 329 328 328 329 330 335 335 337 340 341 344 346 349 349 349 349 345 340 340 339 342 344 342 338 336 329
250 252 257 258 258 259 261 266 273 274 279 281 285 287 289 288 293 298 307 305 310 314 320 320 320 323 327 328 329 338 339 341 341 344 345 347 349 346 348 345 340 341 341 345 346 344 340 338 335
248 251 251 254 256 259 257 261 268 274 279 283 287 289 293 294 296 301 307 314 313 313 311 312 317 322 325 329 331 335 337 338 341 343 345 347 348 347 345 345 341 341 343 348 349 347 343 341 340
249 248 250 252 254 252 254 258 263 270 276 279 285 285 291 294 295 297 301 306 306 307 309 312 316 319 325 330 332 334 335 337 340 342 344 346 346 347 345 346 344 345 344 349 351 349 348 346 345
246 244 246 252 256 259 256 259 259 262 269 272 277 283 288 291 296 296 296 301 304 305 307 312 316 321 324 329 331 333 336 337 338 340 341 345 345 345 343 346 345 346 345 349 352 351 352 353 349
245 249 251 252 254 256 258 260 261 261 264 268 272 276 281 284 286 286 291 294 299 304 307 312 317 319 322 329 332 334 335 336 336 339 342 343 345 344 343 346 349 349 349 352 356 355 356 358 355
244 247 250 252 253 254 255 259 262 260 259 265 268 270 271 276 277 281 284 290 296 302 308 313 315 318 322 326 331 332 334 334 336 338 341 342 343 343 343 343 350 349 351 354 358 358 359 4 3
246 245 246 249 251 253 254 257 261 262 263 263 262 265 271 277 282 286 288 292 298 304 309 312 314 319 323 325 329 330 332 331 335 338 339 340 341 343 344 343 349 349 349 351 358 0 2 5 7
247 247 248 249 251 251 254 254 260 262 263 266 269 272 276 279 286 290 293 297 302 302 307 310 312 317 322 324 327 329 330 333 333 335 337 338 339 341 346 344 347 348 351 352 358 2 4 4 7
247 247 247 249 251 251 254 254 260 262 264 265 269 273 277 282 285 286 291 296 299 301 306 309 310 314 319 322 325 326 328 332 332 333 335 336 337 343 346 344 342 348 349 351 357 0 4 6 8
244 249 252 253 253 255 257 258 261 266 265 266 268 273 276 280 281 285 289 292 295 299 302 307 310 311 316 319 321 324 327 329 330 331 333 335 336 343 346 346 342 347 348 352 356 359 2 5 8
240 244 248 251 254 255 256 258 258 262 265 267 270 272 275 276 279 283 288 291 294 295 298 303 306 309 311 316 319 320 324 327 328 329 331 334 335 342 345 343 341 344 347 351 353 356 359 3 6
242 239 241 245 248 249 250 255 257 259 264 269 270 272 273 276 279 283 284 291 290 293 297 300 304 307 309 313 317 317 320 324 327 327 330 331 336 340 344 344 345 345 347 349 351 354 356 0 1
243 244 246 247 247 248 250 251 255 259 263 265 268 269 271 275 277 282 285 285 288 291 295 298 302 304 306 309 314 316 319 322 324 325 327 328 336 337 341 340 340 340 341 344 350 352 356 357 0
242 244 245 249 249 251 253 253 256 258 259 262 265 268 271 272 276 282 284 286 288 291 294 297 300 302 304 306 310 315 316 318 322 323 324 328 331 331 330 327 331 334 335 339 343 347 351 356 359
241 244 246 247 248 250 252 254 254 254 257 262 265 266 268 272 275 277 282 285 287 291 293 296 298 299 301 303 308 311 313 317 319 322 322 325 328 321 319 320 323 331 332 334 338 341 343 352 356
240 241 243 246 247 249 250 249 251 254 258 262 264 266 270 271 274 277 279 282 286 289 291 293 295 298 297 300 305 309 311 315 316 318 320 323 317 314 314 316 325 330 332 335 337 335 337 343 351
Height
10836 10837 10837 10837 10839 10839 10839 10839 10839 10839 10839 10838 10837 10837 10838 10837 10836 10835 10833 10831 10831 10829 10827 10824 10821 10818 10814 10811 10805 10801 10798 10793 10788 10782 10776 10767 10761 10754 10749 10744 10738 10733 10729 10723 10717 10713 10708 10704 10699
10835 10836 10836 10836 10837 10837 10838 10838 10837 10838 10838 10838 10837 10836 10835 10834 10833 10832 10831 10830 10828 10827 10824 10822 10819 10815 10811 10807 10803 10799 10794 10789 10784 10777 10771 10763 10755 10746 10741 10735 10731 10725 10719 10713 10708 10702 10697 10693 10689
10834 10834 10835 10835 10836 10836 10836 10836 10836 10836 10835 10835 10835 10834 10833 10832 10832 10831 10829 10828 10826 10825 10822 10820 10817 10813 10809 10805 10800 10795 10791 10785 10779 10773 10765 10758 10749 10740 10734 10728 10722 10715 10708 10702 10696 10692 10687 10681 10677
10833 10832 10832 10833 10834 10834 10834 10835 10834 10833 10833 10833 10833 10833 10832 10831 10829 10828 10827 10825 10823 10822 10820 10817 10814 10810 10807 10802 10796 10792 10787 10782 10776 10770 10762 10753 10744 10736 10727 10720 10713 10705 10699 10693 10687 10681 10674 10668 10664
10830 10830 10830 10831 10831 10832 10832 10832 10832 10831 10830 10830 10830 10830 10830 10829 10828 10827 10825 10824 10821 10820 10818 10815 10811 10807 10803 10798 10793 10789 10783 10778 10772 10765 10756 10748 10738 10729 10718 10710 10702 10696 10689 10683 10676 10667 10658 10650 10644
10826 10827 10827 10828 10829 10830 10830 10830 10829 10828 10828 10828 10827 10827 10827 10826 10825 10825 10823 10822 10820 10818 10816 10812 10809 10805 10800 10796 10791 10785 10780 10773 10766 10758 10750 10740 10730 10720 10712 10702 10694 10687 10680 10672 10663 10653 10644 10637 10629
10822 10823 10825 10825 10826 10826 10827 10826 10826 10825 10824 10824 10824 10824 10824 10823 10823 10822 10820 10819 10817 10815 10812 10809 10806 10802 10798 10794 10789 10783 10776 10768 10760 10752 10742 10732 10722 10712 10704 10695 10687 10679 10670 10661 10650 10641 10632 10623 10612
10817 10818 10821 10822 10822 10823 10823 10823 10822 10821 10821 10821 10821 10820 10820 10820 10819 10818 10817 10816 10814 10812 10809 10806 10803 10799 10794 10790 10784 10777 10770 10763 10754 10746 10735 10724 10713 10705 10697 10687 10679 10669 10660 10651 10641 10629 10616 10602 10588
10812 10813 10815 10817 10818 10818 10818 10819 10820 10819 10818 10818 10818 10818 10818 10818 10817 10815 10813 10812 10810 10808 10806 10803 10799 10794 10790 10785 10778 10771 10764 10757 10748 10740 10728 10718 10707 10697 10686 10677 10668 10659 10650 10642 10628 10612 10597 10583 10569
10805 10808 10810 10812 10812 10813 10814 10815 10815 10816 10816 10815 10815 10814 10814 10814 10814 10812 10811 10809 10807 10805 10802 10799 10795 10790 10784 10779 10773 10766 10759 10752 10743 10734 10723 10713 10701 10691 10679 10669 10659 10650 10640 10627 10613 10597 10581 10567 10552
10799 10801 10804 10806 10807 10807 10808 10809 10810 10812 10812 10812 10812 10811 10811 10810 10809 10808 10807 10806 10804 10802 10799 10795 10791 10785 10779 10774 10767 10760 10753 10746 10737 10727 10717 10707 10694 10683 10672 10662 10650 10640 10629 10616 10601 10584 10566 10550 10535
10792 10796 10797 10800 10801 10802 10803 10805 10806 10807 10808 10808 10808 10807 10806 10806 10805 10804 10803 10802 10800 10798 10794 10791 10786 10781 10776 10769 10763 10755 10749 10741 10731 10722 10711 10700 10688 10677 10664 10654 10642 10631 10618 10603 10587 10570 10552 10532 10517
10785 10789 10791 10794 10795 10796 10797 10800 10800 10802 10803 10803 10803 10803 10802 10801 10801 10800 10799 10798 10796 10793 10791 10787 10782 10776 10771 10765 10758 10751 10744 10736 10725 10714 10704 10692 10682 10670 10658 10646 10635 10622 10608 10593 10575 10556 10535 10517 10503
10777 10783 10785 10787 10788 10790 10792 10793 10795 10797 10796 10798 10798 10799 10797 10796 10796 10796 10795 10793 10791 10787 10784 10780 10776 10771 10765 10760 10753 10746 10738 10729 10718 10707 10696 10685 10673 10660 10649 10639 10628 10615 10600 10583 10564 10544 10524 10507 10491
10768 10775 10778 10779 10781 10783 10786 10788 10789 10789 10792 10791 10792 10793 10792 10791 10791 10791 10790 10787 10785 10782 10778 10774 10770 10765 10759 10754 10747 10739 10731 10722 10711 10700 10690 10679 10666 10654 10641 10631 10620 10607 10592 10575 10557 10536 10515 10496 10478
10758 10765 10769 10769 10774 10776 10782 10780 10784 10785 10785 10786 10786 10786 10787 10786 10786 10785 10784 10781 10779 10776 10772 10769 10764 10759 10753 10747 10740 10732 10724 10714 10705 10694 10683 10672 10660 10648 10636 10625 10613 10599 10584 10569 10549 10527 10507 10486 10471
10748 10753 10754 10758 10765 10769 10775 10773 10777 10780 10780 10780 10780 10780 10780 10780 10781 10780 10778 10776 10773 10771 10768 10764 10760 10755 10749 10742 10734 10726 10717 10708 10699 10689 10679 10667 10655 10643 10631 10619 10607 10592 10578 10563 10542 10522 10503 10481 10467
10729 10735 10741 10749 10755 10761 10764 10764 10771 10772 10774 10773 10773 10773 10773 10773 10773 10773 10771 10769 10768 10765 10762 10759 10755 10750 10743 10736 10728 10719 10711 10702 10693 10685 10675 10663 10652 10638 10626 10615 10602 10588 10574 10558 10539 10519 10498 10479 10466
10719 10726 10732 10737 10743 10749 10752 10754 10760 10766 10765 10765 10766 10766 10765 10766 10765 10766 10764 10762 10761 10758 10755 10753 10749 10743 10736 10729 10721 10713 10705 10697 10688 10679 10670 10659 10647 10635 10623 10612 10600 10586 10570 10556 10536 10516 10497 10480 10467
10708 10716 10720 10722 10728 10735 10742 10744 10749 10758 10758 10757 10758 10759 10758 10758 10758 10756 10755 10754 10752 10751 10748 10746 10742 10736 10730 10723 10715 10707 10700 10692 10684 10675 10666 10656 10643 10631 10620 10610 10598 10585 10571 10555 10536 10517 10498 10483 10471
10696 10703 10702 10707 10714 10724 10730 10736 10736 10746 10750 10748 10749 10751 10751 10750 10750 10749 10748 10746 10745 10743 10741 10738 10734 10729 10723 10716 10709 10702 10694 10686 10678 10670 10661 10651 10640 10628 10617 10607 10598 10584 10570 10556 10540 10522 10503 10488 10478
10684 10685 10687 10695 10701 10713 10717 10728 10726 10733 10740 10739 10737 10739 10741 10741 10741 10740 10739 10738 10737 10735 10733 10730 10726 10722 10716 10710 10703 10696 10688 10680 10673 10665 10657 10646 10635 10625 10614 10604 10595 10584 10572 10558 10544 10528 10511 10496 10486
10666 10667 10673 10680 10688 10698 10708 10716 10719 10721 10726 10728 10729 10730 10730 10732 10731 10730 10730 10730 10729 10727 10725 10722 10718 10714 10709 10703 10697 10688 10681 10675 10667 10659 10652 10643 10632 10622 10612 10601 10593 10583 10573 10560 10548 10535 10520 10507 10495
10650 10654 10660 10666 10674 10690 10697 10700 10720 10706 10709 10715 10719 10721 10721 10722 10721 10721 10720 10720 10720 10719 10716 10713 10710 10706 10701 10696 10690 10681 10675 10668 10661 10653 10645 10638 10630 10619 10609 10600 10592 10583 10573 10563 10550 10541 10526 10515 10505
10631 10637 10640 10649 10660 10683 10681 10681 10711 10694 10694 10702 10707 10710 10710 10710 10710 10711 10711 10711 10711 10710 10708 10705 10702 10698 10693 10688 10682 10675 10668 10661 10655 10647 10639 10632 10625 10615 10607 10598 10591 10583 10574 10565 10553 10543 10534 10524 10514
10603 10606 10619 10626 10640 10657 10660 10676 10691 10687 10685 10686 10693 10696 10697 10697 10698 10700 10700 10701 10701 10700 10698 10696 10693 10689 10685 10680 10674 10667 10661 10654 10647 10642 10633 10626 10619 10611 10605 10596 10591 10583 10575 10566 10557 10548 10539 10531 10522
10583 10593 10602 10606 10622 10636 10649 10668 10674 10677 10675 10674 10676 10680 10682 10683 10685 10688 10689 10689 10690 10689 10687 10685 10683 10678 10675 10672 10665 10659 10653 10647 10640 10634 10627 10620 10613 10607 10601 10595 10589 10583 10575 10568 10560 10551 10542 10536 10528
10564 10573 10575 10589 10606 10621 10639 10653 10663 10662 10654 10658 10663 10666 10667 10669 10672 10675 10676 10676 10678 10677 10675 10674 10671 10667 10664 10661 10656 10650 10645 10639 10633 10626 10621 10613 10608 10603 10596 10593 10587 10582 10577 10568 10562 10555 10547 10539 10533
10542 10554 10562 10571 10585 10604 10620 10637 10645 10642 10641 10644 10646 10649 10653 10657 10660 10662 10663 10664 10664 10664 10663 10662 10660 10656 10653 10649 10645 10640 10636 10630 10624 10618 10613 10607 10602 10598 10592 10588 10583 10577 10572 10568 10561 10556 10549 10541 10534
10517 10531 10538 10546 10568 10579 10591 10615 10623 10627 10629 10631 10630 10633 10638 10643 10647 10650 10652 10651 10651 10650 10650 10649 10647 10645 10642 10637 10633 10630 10625 10620 10614 10609 10604 10599 10596 10592 10587 10582 10577 10573 10568 10564 10561 10556 10550 10545 10538